Location: Newark
(52.1752°N, 10.4140°W)
Time: 11:08:02
(UTC+00:00)

N. Korean satellite - Pass Details

Date: 17 November 2019
Orbit: 455 x 506 km, 97.2° (Epoch: 10 December)

Event Time Altitude Azimuth Distance (km) Brightness Sun altitude
Rises 05:23:48 0° 30° (NNE) 2,624 10.7 -24.4°
Reaches altitude 10° 05:27:03 10° 61° (ENE) 1,728 10.2 -23.9°
Maximum altitude 05:28:39 12° 87° (E) 1,577 10.2 -23.6°
Drops below altitude 10° 05:30:14 10° 113° (ESE) 1,715 10.3 -23.4°
Sets 05:33:26 0° 144° (SE) 2,582 10.8 -22.9°
